EW2725 Weather Reports


Display with metric or nautical units.
time (UTC)temp
F
wind
direction
speed
MPH
gust
MPH
rain 1hr
in
rain 24hr
in
rain mn
in
humidity
%
barometer
mb
20260903200127 75 221 2.0 0.0 0.00 0.00 0.26 83 1100.1
20260903194637 75 209 3.0 0.0 0.00 0.00 0.26 83 1100.1
20260903193007 76 233 2.0 0.0 0.00 0.00 0.26 82 1100.1
20260903191513 75 223 4.0 0.0 0.00 0.00 0.26 82 1100.1
20260903190114 76 252 2.0 0.0 0.00 0.00 0.26 82 1100.1
20260903184603 75 252 2.0 0.0 0.00 0.00 0.26 82 1100.1
20260903183109 76 252 3.0 0.0 0.00 0.00 0.26 80 1100.1
20260903181556 75 252 5.0 0.0 0.00 0.00 0.26 83 1100.1
20260903180128 75 252 3.0 0.0 0.00 0.00 0.26 84 1100.1
20260903174626 76 252 2.0 0.0 0.00 0.00 0.26 85 1100.1
20260903173124 75 252 3.0 0.0 0.00 0.00 0.26 86 1100.1
20260903171631 74 252 4.0 0.0 0.00 0.00 0.26 86 1100.1
20260903170135 74 252 3.0 0.0 0.00 0.00 0.26 86 1100.1
20260903164638 75 252 2.0 0.0 0.00 0.00 0.26 86 1100.1
20260903163132 75 252 2.0 0.0 0.00 0.00 0.26 84 1100.1
20260903161624 75 252 1.0 0.0 0.00 0.00 0.26 84 1100.1
20260903160125 74 252 2.0 0.0 0.00 0.00 0.26 87 1100.1
20260903154619 74 252 1.0 0.0 0.00 0.00 0.26 90 1100.1
20260903153124 72 252 2.0 0.0 0.00 0.00 0.26 90 1100.1
20260903151629 72 252 2.0 0.0 0.00 0.00 0.26 91 1100.1
20260903150120 72 252 2.0 0.0 0.00 0.00 0.26 92 1100.1
20260903144623 71 252 2.0 0.0 0.00 0.00 0.26 92 1100.1
20260903143125 71 252 2.0 0.0 0.00 0.00 0.26 92 1100.1
20260903141635 70 252 2.0 0.0 0.00 0.00 0.26 92 1100.1
20260903140138 70 252 1.0 0.0 0.00 0.00 0.26 92 1100.1
20260903134634 68 252 2.0 0.0 0.00 0.00 0.26 91 1100.1
20260903133132 68 252 2.0 0.0 0.00 0.00 0.26 91 1100.1
20260903131635 68 252 2.0 0.0 0.00 0.00 0.25 91 1100.1
20260903130020 67 252 3.0 0.0 0.00 0.00 0.25 91 1100.1
20260903124607 67 252 3.0 0.0 0.00 0.00 0.25 91 1100.1
20260903123114 66 192 4.0 0.0 0.00 0.00 0.24 91 1100.1
20260903121620 66 144 2.0 0.0 0.00 0.00 0.23 91 1100.1
20260903120119 66 270 2.0 0.0 0.00 0.00 0.22 91 1100.1
20260903114623 66 76 3.0 0.0 0.00 0.00 0.19 90 1100.1
20260903113136 66 180 2.0 0.0 0.00 0.00 0.19 90 1100.1
20260903111634 65 217 2.0 0.0 0.00 0.00 0.19 90 1100.1
20260903110004 65 241 1.0 0.0 0.00 0.00 0.19 90 1100.1
20260903104634 65 241 1.0 0.0 0.00 0.00 0.19 90 1100.1
20260903103053 65 241 1.0 0.0 0.00 0.00 0.18 90 1100.1
20260903101507 65 234 0.0 0.0 0.00 0.00 0.05 89 1100.1
20260903100006 65 234 0.0 0.0 0.00 0.00 0.04 89 1100.1
20260903094642 65 82 0.0 0.0 0.00 0.00 0.02 89 1100.1
20260903093006 65 104 0.0 0.0 0.00 0.00 0.02 89 1100.1
20260903091623 65 104 0.0 0.0 0.00 0.00 0.01 88 1100.1
20260903090136 64 104 0.0 0.0 0.00 0.00 0.01 88 1100.1
20260903084501 64 104 0.0 0.0 0.00 0.00 0.01 88 1100.1
20260903083009 64 104 0.0 0.0 0.00 0.00 0.01 87 1100.1
20260903081607 64 104 0.0 0.0 0.00 0.00 0.00 86 1100.1
20260903080106 64 104 0.0 0.0 0.00 0.00 0.00 85 1100.1
20260903074622 64 104 0.0 0.0 0.00 0.00 0.00 86 1100.1
20260903073124 63 104 0.0 0.0 0.00 0.00 0.00 86 1100.1
20260903071632 63 103 0.0 0.0 0.00 0.00 0.00 86 1100.1
20260903070114 63 111 0.0 0.0 0.00 0.00 0.00 86 1100.1
20260903064614 63 175 0.0 0.0 0.00 0.00 0.00 85 1100.1
20260903063114 62 175 0.0 0.0 0.00 0.00 0.00 85 1100.1
20260903061626 62 175 0.0 0.0 0.00 0.00 0.00 85 1100.1
20260903060127 62 175 0.0 0.0 0.00 0.00 0.00 85 1100.1
20260903054643 61 175 0.0 0.0 0.00 0.00 0.00 86 1100.1
20260903053001 61 360 0.0 0.0 0.00 0.00 0.00 86 1100.1
20260903051503 60 360 0.0 0.0 0.00 0.00 0.00 86 1100.1
20260903050007 60 175 0.0 0.0 0.00 0.00 0.00 86 1100.1
20260903044604 60 175 0.0 0.0 0.00 0.00 0.00 86 1100.1
20260903043104 60 360 0.0 0.0 0.00 0.00 0.00 86 1100.1
20260903031624 60 175 0.0 0.0 0.00 0.00 0.00 87 1100.1
20260903030116 60 175 0.0 0.0 0.00 0.00 0.00 87 1100.1
20260903024503 61 175 0.0 0.0 0.00 0.00 0.00 86 1100.1
20260903023058 61 175 0.0 0.0 0.00 0.00 0.00 87 1100.1
20260903021513 61 175 0.0 0.0 0.00 0.00 0.00 86 1100.1
20260903020106 61 175 0.0 0.0 0.00 0.00 0.00 86 1100.1
20260903014510 61 175 0.0 0.0 0.00 0.00 0.00 85 1100.1
20260903013201 61 175 0.0 0.0 0.00 0.00 0.00 85 1100.1
20260903011640 61 175 0.0 0.0 0.00 0.00 0.00 84 1100.1
20260903010134 62 175 0.0 0.0 0.00 0.00 0.00 83 1100.1
20260903004635 62 175 0.0 0.0 0.00 0.00 0.00 82 1100.1
20260903003008 63 175 0.0 0.0 0.00 0.00 0.00 80 1100.1
20260903001608 64 175 0.0 0.0 0.00 0.00 0.00 79 1100.1
20260903000118 64 175 0.0 0.0 0.00 0.00 0.00 80 1100.1
20260902234611 64 175 0.0 0.0 0.00 0.00 0.00 82 1100.1
20260902233118 65 175 0.0 0.0 0.00 0.00 0.00 81 1100.1
20260902231619 66 175 0.0 0.0 0.00 0.00 0.00 79 1100.1
20260902224505 68 54 0.0 0.0 0.00 0.00 0.00 77 1100.1
20260902223135 68 62 1.0 0.0 0.00 0.00 0.00 76 1100.1
20260902221620 69 79 1.0 0.0 0.00 0.00 0.00 75 1100.1
20260902220127 69 58 2.0 0.0 0.00 0.00 0.00 74 1100.1
20260902214507 69 42 1.0 0.0 0.00 0.00 0.00 73 1100.1
20260902213104 70 267 2.0 0.0 0.00 0.00 0.00 73 1100.1
20260902211502 70 10 4.0 0.0 0.00 0.00 0.00 73 1100.1
20260902210142 70 321 3.0 0.0 0.00 0.00 0.00 71 1100.1
20260902204638 71 343 3.0 0.0 0.00 0.00 0.00 69 1100.1
20260902203110 71 17 3.0 0.0 0.00 0.00 0.00 69 1100.1
20260902201635 71 24 5.0 0.0 0.00 0.00 0.00 69 1100.1